This demonstration page uses our WeatherBlox Daily Observations layout. Learn more.

Left ArrowRight Arrow

39.29038, -76.61219

Hourly Observations for November 30, 2018

Temp ( °F °C ) Dew Point ( °F °C ) Humidity (%) Winds ( mph kmh ) Pressure ( in mb ) Visibility ( mi km ) Precip ( " mm )
12:54 am 00:54 undefined 38 3.3 21 -6.1 51 51 undefined N/A 30.08 1019 N/A 0.00 0.00
1:54 am 01:54 undefined 38 3.3 22 -5.6 52 52 undefined N/A 30.06 1018 N/A 0.00 0.00
2:54 am 02:54 undefined 38 3.3 22 -5.6 52 52 undefined N/A 30.07 1018 N/A 0.00 0.00
3:54 am 03:54 undefined 38 3.3 22 -5.6 52 52 undefined N/A 30.07 1018 N/A 0.00 0.00
4:54 am 04:54 undefined 38 3.3 23 -5 55 55 undefined N/A 30.06 1018 N/A 0.00 0.00
5:54 am 05:54 undefined 38 3.3 23 -5 55 55 undefined N/A 30.05 1018 N/A 0.00 0.00
6:54 am 06:54 undefined 38 3.3 25 -3.9 60 60 undefined N/A 30.04 1017 N/A 0.00 0.00
7:54 am 07:54 undefined 38 3.3 27 -2.8 65 65 undefined N/A 30.04 1017 N/A 0.00 0.00
8:54 am 08:54 undefined 40 4.4 24 -4.4 53 53 undefined N/A 30.09 1019 N/A 0.00 0.00
9:54 am 09:54 undefined 41 5 25 -3.9 53 53 undefined N/A 30.07 1018 N/A 0.00 0.00
10:54 am 10:54 undefined 42 5.6 26 -3.3 53 53 undefined N/A 30.06 1018 N/A 0.00 0.00
11:54 am 11:54 undefined 43 6.1 25 -3.9 49 49 undefined N/A 30.03 1017 N/A 0.00 0.00
12:54 pm 12:54 undefined 43 6.1 27 -2.8 53 53 undefined N/A 30.00 1016 N/A 0.00 0.00
1:54 pm 13:54 undefined 42 5.6 28 -2.2 58 58 undefined N/A 29.99 1016 N/A 0.00 0.00
2:54 pm 14:54 undefined 42 5.6 31 -0.6 65 65 undefined N/A 29.99 1016 N/A 0.01 0.25
3:54 pm 15:54 undefined 42 5.6 31 -0.6 65 65 undefined N/A 30.01 1016 N/A 0.00 0.00
4:54 pm 16:54 undefined 42 5.6 32 0 68 68 undefined N/A 30.04 1017 N/A 0.00 0.00
5:54 pm 17:54 undefined 42 5.6 32 0 68 68 undefined N/A 30.05 1018 N/A 0.00 0.00
6:54 pm 18:54 undefined 42 5.6 32 0 68 68 undefined N/A 30.09 1019 N/A 0.00 0.00
7:54 pm 19:54 undefined 42 5.6 33 0.6 71 71 undefined N/A 30.09 1019 N/A 0.00 0.00
8:54 pm 20:54 undefined 42 5.6 33 0.6 71 71 undefined N/A 30.12 1020 N/A 0.00 0.00
9:54 pm 21:54 undefined 42 5.6 33 0.6 71 71 undefined N/A 30.11 1020 N/A 0.00 0.00
10:54 pm 22:54 undefined 43 6.1 34 1.1 71 71 undefined N/A 30.12 1020 N/A 0.00 0.00
11:54 pm 23:54 undefined 43 6.1 33 0.6 68 68 undefined N/A 30.14 1021 N/A 0.00 0.00

Powered by AerisWeather